Location: St Paul
(33.4390°N, 83.7350°W)
Time: 19:44:14
(UTC-04:00)

Tiangong 1 - Pass Details

Date: 06 October 2017
Orbit: 293 x 320 km, 42.8° (Epoch: 19 October)

Event Time Altitude Azimuth Distance (km) Brightness Sun altitude
Rises 20:08:31 0° 270° (W) 2,032 6.9 -12.5°
Reaches altitude 10° 20:10:45 10° 286° (WNW) 1,199 4.9 -13.0°
Maximum altitude 20:12:56 22° 341° (NNW) 747 2.8 -13.5°
Enters shadow 20:14:34 13° 27° (NNE) 1,022 3.0 -13.8°
